Time,TemperatureF,DewpointF,PressureIn,WindDirection,WindDirectionDegrees,WindSpeedMPH,WindSpeedGustMPH,Humidity,HourlyPrecipIn,Conditions,Clouds,dailyrainin,SoftwareType,DateUTC
2013-04-10 00:09:00,47.5,22.0,29.74,NW,308,4.0,8.0,37,0.00,,,0.00,weatherlink.com 1.10,2013-04-10 07:09:00,
2013-04-10 00:24:00,47.2,22.0,29.74,NNW,328,3.0,6.0,37,0.00,,,0.00,weatherlink.com 1.10,2013-04-10 07:24:00,
2013-04-10 00:39:00,47.0,22.0,29.74,NNW,341,2.0,5.0,37,0.00,,,0.00,weatherlink.com 1.10,2013-04-10 07:39:00,
2013-04-10 00:54:00,46.5,23.0,29.74,NNW,336,2.0,4.0,39,0.00,,,0.00,weatherlink.com 1.10,2013-04-10 07:54:00,
2013-04-10 01:09:00,45.8,22.0,29.74,NNW,343,4.0,4.0,39,0.00,,,0.00,weatherlink.com 1.10,2013-04-10 08:09:00,
2013-04-10 01:24:00,44.9,22.0,29.75,NNW,345,4.0,4.0,41,0.00,,,0.00,weatherlink.com 1.10,2013-04-10 08:24:00,
2013-04-10 01:39:00,44.0,22.0,29.75,NNW,331,4.0,5.0,42,0.00,,,0.00,weatherlink.com 1.10,2013-04-10 08:39:00,
2013-04-10 01:54:00,43.2,22.0,29.75,NNW,333,3.0,5.0,44,0.00,,,0.00,weatherlink.com 1.10,2013-04-10 08:54:00,
2013-04-10 02:09:00,42.6,22.0,29.75,North,349,3.0,5.0,44,0.00,,,0.00,weatherlink.com 1.10,2013-04-10 09:09:00,
2013-04-10 02:25:00,42.9,22.0,29.74,NNW,346,3.0,7.0,44,0.00,,,0.00,weatherlink.com 1.10,2013-04-10 09:25:00,
2013-04-10 02:40:00,42.9,23.0,29.75,NNW,334,4.0,5.0,45,0.00,,,0.00,weatherlink.com 1.10,2013-04-10 09:40:00,
2013-04-10 02:55:00,42.5,22.0,29.75,NW,326,4.0,6.0,45,0.00,,,0.00,weatherlink.com 1.10,2013-04-10 09:55:00,
2013-04-10 03:10:00,42.3,22.0,29.76,NW,313,3.0,5.0,45,0.00,,,0.00,weatherlink.com 1.10,2013-04-10 10:10:00,
2013-04-10 03:25:00,41.5,23.0,29.76,NW,305,0.0,4.0,49,0.00,,,0.00,weatherlink.com 1.10,2013-04-10 10:25:00,
2013-04-10 03:40:00,40.5,23.0,29.77,NNW,333,1.0,5.0,50,0.00,,,0.00,weatherlink.com 1.10,2013-04-10 10:40:00,
2013-04-10 03:55:00,40.0,23.0,29.77,NNW,332,1.0,3.0,52,0.00,,,0.00,weatherlink.com 1.10,2013-04-10 10:55:00,
2013-04-10 04:10:00,38.6,24.0,29.77,NNW,332,0.0,2.0,55,0.00,,,0.00,weatherlink.com 1.10,2013-04-10 11:10:00,
2013-04-10 04:25:00,37.5,25.0,29.78,NNW,332,0.0,2.0,60,0.00,,,0.00,weatherlink.com 1.10,2013-04-10 11:25:00,
2013-04-10 04:40:00,36.4,25.0,29.79,NNW,332,2.0,2.0,63,0.00,,,0.00,weatherlink.com 1.10,2013-04-10 11:40:00,
2013-04-10 04:55:00,35.4,25.0,29.79,WSW,244,1.0,4.0,65,0.00,,,0.00,weatherlink.com 1.10,2013-04-10 11:55:00,
2013-04-10 05:10:00,34.7,25.0,29.80,WSW,244,0.0,3.0,68,0.00,,,0.00,weatherlink.com 1.10,2013-04-10 12:10:00,
2013-04-10 05:25:00,34.7,25.0,29.80,West,270,0.0,2.0,67,0.00,,,0.00,weatherlink.com 1.10,2013-04-10 12:25:00,
2013-04-10 05:40:00,34.6,25.0,29.81,West,270,0.0,2.0,69,0.00,,,0.00,weatherlink.com 1.10,2013-04-10 12:40:00,
2013-04-10 05:55:00,34.5,25.0,29.82,ESE,117,3.0,3.0,69,0.00,,,0.00,weatherlink.com 1.10,2013-04-10 12:55:00,
2013-04-10 06:10:00,33.8,26.0,29.83,ESE,113,1.0,1.0,72,0.00,,,0.00,weatherlink.com 1.10,2013-04-10 13:10:00,
2013-04-10 06:25:00,33.5,26.0,29.84,ESE,113,0.0,2.0,74,0.00,,,0.00,weatherlink.com 1.10,2013-04-10 13:25:00,
2013-04-10 06:40:00,34.8,28.0,29.85,WSW,239,2.0,3.0,76,0.00,,,0.00,weatherlink.com 1.10,2013-04-10 13:40:00,
2013-04-10 06:55:00,38.2,28.0,29.86,NW,318,1.0,4.0,67,0.00,,,0.00,weatherlink.com 1.10,2013-04-10 13:55:00,
2013-04-10 07:10:00,42.4,29.0,29.86,West,271,3.0,5.0,59,0.00,,,0.00,weatherlink.com 1.10,2013-04-10 14:10:00,
2013-04-10 07:25:00,45.6,28.0,29.86,NW,324,2.0,6.0,50,0.00,,,0.00,weatherlink.com 1.10,2013-04-10 14:25:00,
2013-04-10 07:41:00,47.7,28.0,29.86,NNW,331,3.0,6.0,47,0.00,,,0.00,weatherlink.com 1.10,2013-04-10 14:41:00,
2013-04-10 07:56:00,49.5,29.0,29.86,NW,309,3.0,6.0,45,0.00,,,0.00,weatherlink.com 1.10,2013-04-10 14:56:00,
2013-04-10 08:11:00,50.8,28.0,29.87,NNW,329,4.0,5.0,42,0.00,,,0.00,weatherlink.com 1.10,2013-04-10 15:11:00,
2013-04-10 09:11:00,53.9,27.0,29.88,NE,37,3.0,7.0,36,0.00,,,0.00,weatherlink.com 1.10,2013-04-10 16:11:00,
2013-04-10 09:41:00,55.1,28.0,29.88,ENE,71,3.0,5.0,36,0.00,,,0.00,weatherlink.com 1.10,2013-04-10 16:41:00,
2013-04-10 10:26:00,57.1,30.0,29.89,NW,322,2.0,5.0,35,0.00,,,0.00,weatherlink.com 1.10,2013-04-10 17:26:00,
2013-04-10 10:41:00,58.1,27.0,29.89,WSW,244,1.0,6.0,30,0.00,,,0.00,weatherlink.com 1.10,2013-04-10 17:41:00,
2013-04-10 10:56:00,58.8,26.0,29.89,ENE,57,2.0,7.0,29,0.00,,,0.00,weatherlink.com 1.10,2013-04-10 17:56:00,
2013-04-10 11:11:00,58.0,27.0,29.88,WNW,284,4.0,5.0,31,0.00,,,0.00,weatherlink.com 1.10,2013-04-10 18:11:00,
2013-04-10 11:41:00,63.3,29.0,29.87,NNW,340,3.0,5.0,27,0.00,,,0.00,weatherlink.com 1.10,2013-04-10 18:41:00,
2013-04-10 11:56:00,62.0,29.0,29.86,West,277,7.0,8.0,29,0.00,,,0.00,weatherlink.com 1.10,2013-04-10 18:56:00,
2013-04-10 12:11:00,62.2,29.0,29.86,SW,229,2.0,9.0,28,0.00,,,0.00,weatherlink.com 1.10,2013-04-10 19:11:00,
2013-04-10 12:26:00,62.6,29.0,29.85,SW,232,5.0,8.0,28,0.00,,,0.00,weatherlink.com 1.10,2013-04-10 19:26:00,
2013-04-10 12:41:00,63.6,29.0,29.84,West,269,2.0,9.0,27,0.00,,,0.00,weatherlink.com 1.10,2013-04-10 19:41:00,
2013-04-10 12:56:00,63.3,29.0,29.84,SSW,209,4.0,7.0,27,0.00,,,0.00,weatherlink.com 1.10,2013-04-10 19:56:00,
2013-04-10 13:11:00,64.2,29.0,29.83,SSE,148,3.0,5.0,27,0.00,,,0.00,weatherlink.com 1.10,2013-04-10 20:11:00,
2013-04-10 13:26:00,65.2,29.0,29.82,South,169,2.0,8.0,26,0.00,,,0.00,weatherlink.com 1.10,2013-04-10 20:26:00,
2013-04-10 13:41:00,65.7,26.0,29.81,SW,233,3.0,9.0,22,0.00,,,0.00,weatherlink.com 1.10,2013-04-10 20:41:00,
2013-04-10 13:56:00,64.8,24.0,29.80,North,355,2.0,8.0,21,0.00,,,0.00,weatherlink.com 1.10,2013-04-10 20:56:00,
2013-04-10 14:11:00,66.3,27.0,29.79,ESE,104,4.0,6.0,23,0.00,,,0.00,weatherlink.com 1.10,2013-04-10 21:11:00,
2013-04-10 14:26:00,66.9,28.0,29.79,ESE,111,5.0,7.0,23,0.00,,,0.00,weatherlink.com 1.10,2013-04-10 21:26:00,
2013-04-10 14:42:00,66.9,26.0,29.78,ESE,123,3.0,10.0,21,0.00,,,0.00,weatherlink.com 1.10,2013-04-10 21:42:00,
2013-04-10 14:57:00,67.8,24.0,29.77,East,90,3.0,13.0,19,0.00,,,0.00,weatherlink.com 1.10,2013-04-10 21:57:00,
2013-04-10 15:12:00,67.8,24.0,29.77,SSE,150,6.0,10.0,19,0.00,,,0.00,weatherlink.com 1.10,2013-04-10 22:12:00,
2013-04-10 15:27:00,68.2,24.0,29.76,WNW,294,3.0,7.0,19,0.00,,,0.00,weatherlink.com 1.10,2013-04-10 22:27:00,
2013-04-10 15:42:00,68.6,22.0,29.75,East,88,3.0,8.0,17,0.00,,,0.00,weatherlink.com 1.10,2013-04-10 22:42:00,
2013-04-10 15:57:00,67.6,24.0,29.75,North,5,0.0,4.0,19,0.00,,,0.00,weatherlink.com 1.10,2013-04-10 22:57:00,
2013-04-10 16:12:00,68.5,17.0,29.75,NNE,13,4.0,15.0,14,0.00,,,0.00,weatherlink.com 1.10,2013-04-10 23:12:00,
2013-04-10 16:27:00,68.5,19.0,29.75,East,99,3.0,14.0,15,0.00,,,0.00,weatherlink.com 1.10,2013-04-10 23:27:00,
2013-04-10 16:42:00,69.0,19.0,29.75,ENE,64,2.0,11.0,15,0.00,,,0.00,weatherlink.com 1.10,2013-04-10 23:42:00,
2013-04-10 16:57:00,69.6,20.0,29.75,NW,311,4.0,6.0,15,0.00,,,0.00,weatherlink.com 1.10,2013-04-10 23:57:00,
2013-04-10 17:12:00,69.8,20.0,29.75,WNW,292,6.0,14.0,15,0.00,,,0.00,weatherlink.com 1.10,2013-04-11 00:12:00,
2013-04-10 17:27:00,69.1,19.0,29.74,WNW,285,8.0,13.0,15,0.00,,,0.00,weatherlink.com 1.10,2013-04-11 00:27:00,
2013-04-10 17:42:00,68.0,20.0,29.75,NNW,327,5.0,14.0,16,0.00,,,0.00,weatherlink.com 1.10,2013-04-11 00:42:00,
2013-04-10 17:57:00,67.6,20.0,29.74,NW,317,3.0,12.0,16,0.00,,,0.00,weatherlink.com 1.10,2013-04-11 00:57:00,
2013-04-10 18:12:00,67.1,21.0,29.74,WNW,299,4.0,10.0,17,0.00,,,0.00,weatherlink.com 1.10,2013-04-11 01:12:00,
2013-04-10 18:27:00,65.4,19.0,29.75,WNW,288,6.0,12.0,17,0.00,,,0.00,weatherlink.com 1.10,2013-04-11 01:27:00,
2013-04-10 18:42:00,63.6,18.0,29.76,WNW,288,4.0,14.0,17,0.00,,,0.00,weatherlink.com 1.10,2013-04-11 01:42:00,
2013-04-10 18:57:00,62.7,17.0,29.76,WNW,301,8.0,16.0,17,0.00,,,0.00,weatherlink.com 1.10,2013-04-11 01:57:00,
2013-04-10 19:12:00,61.8,18.0,29.76,NW,314,3.0,9.0,18,0.00,,,0.00,weatherlink.com 1.10,2013-04-11 02:12:00,
2013-04-10 19:27:00,60.6,18.0,29.77,NW,321,3.0,6.0,19,0.00,,,0.00,weatherlink.com 1.10,2013-04-11 02:27:00,
2013-04-10 19:42:00,59.2,19.0,29.77,NNW,328,1.0,3.0,21,0.00,,,0.00,weatherlink.com 1.10,2013-04-11 02:42:00,
2013-04-10 19:57:00,56.9,20.0,29.78,NNW,327,0.0,2.0,24,0.00,,,0.00,weatherlink.com 1.10,2013-04-11 02:57:00,
2013-04-10 20:12:00,54.8,19.0,29.79,NW,304,0.0,4.0,25,0.00,,,0.00,weatherlink.com 1.10,2013-04-11 03:12:00,
2013-04-10 20:42:00,51.4,24.0,29.80,NW,304,0.0,0.0,35,0.00,,,0.00,weatherlink.com 1.10,2013-04-11 03:42:00,
2013-04-10 20:57:00,49.2,26.0,29.80,WNW,298,1.0,2.0,40,0.00,,,0.00,weatherlink.com 1.10,2013-04-11 03:57:00,
2013-04-10 21:12:00,47.6,25.0,29.81,WSW,244,0.0,1.0,41,0.00,,,0.00,weatherlink.com 1.10,2013-04-11 04:12:00,
2013-04-10 21:27:00,46.5,25.0,29.81,WSW,244,0.0,2.0,44,0.00,,,0.00,weatherlink.com 1.10,2013-04-11 04:27:00,
2013-04-10 21:42:00,45.4,26.0,29.81,WSW,244,0.0,2.0,46,0.00,,,0.00,weatherlink.com 1.10,2013-04-11 04:42:00,
2013-04-10 21:57:00,44.4,26.0,29.81,West,266,0.0,1.0,49,0.00,,,0.00,weatherlink.com 1.10,2013-04-11 04:57:00,
2013-04-10 22:12:00,43.6,26.0,29.81,West,266,0.0,1.0,50,0.00,,,0.00,weatherlink.com 1.10,2013-04-11 05:12:00,
2013-04-10 22:27:00,42.7,26.0,29.81,West,266,0.0,2.0,52,0.00,,,0.00,weatherlink.com 1.10,2013-04-11 05:27:00,
2013-04-10 22:42:00,42.0,24.0,29.81,West,266,1.0,1.0,50,0.00,,,0.00,weatherlink.com 1.10,2013-04-11 05:42:00,
2013-04-10 22:57:00,41.5,23.0,29.81,West,266,0.0,2.0,49,0.00,,,0.00,weatherlink.com 1.10,2013-04-11 05:57:00,
2013-04-10 23:12:00,41.3,25.0,29.82,West,266,0.0,2.0,52,0.00,,,0.00,weatherlink.com 1.10,2013-04-11 06:12:00,
2013-04-10 23:27:00,41.5,25.0,29.82,WNW,303,1.0,3.0,52,0.00,,,0.00,weatherlink.com 1.10,2013-04-11 06:27:00,
2013-04-10 23:42:00,41.5,26.0,29.82,WNW,303,2.0,2.0,54,0.00,,,0.00,weatherlink.com 1.10,2013-04-11 06:42:00,
2013-04-10 23:57:00,41.1,28.0,29.82,NW,315,3.0,3.0,59,0.00,,,0.00,weatherlink.com 1.10,2013-04-11 06:57:00,